Regional Weather Roundup
Issued by NWS Upton, NY

Current Version | Previous Version | Text Only | Print | Product List | Glossary On
Versions: 1 2 3 4 5 6 7 8 9 10 11 12 13 14 15 16 17 18 19 20 21 22 23 24 25 26 27 28 29 30 31 32 33 34 35 36 37 38 39 40 41 42 43 44 45 46 47 48 49 50
000
ASUS41 KOKX 211305
RWROKX

REGIONAL WEATHER ROUNDUP
NATIONAL WEATHER SERVICE NEW YORK NY
900 AM EDT THU AUG 21 2014

NOTE: "FAIR" INDICATES FEW OR NO CLOUDS BELOW 12,000 FEET WITH NO
SIGNIFICANT WEATHER AND/OR OBSTRUCTIONS TO VISIBILITY.

NYZ071-072-176-178-NJZ106-104-211400-
NEW YORK CITY METRO AREA


CITY           SKY/WX    TMP DP  RH WIND       PRES   REMARKS
CENTRAL PARK   MOSUNNY   72  64  76 CALM      30.09S
LAGUARDIA APRT MOSUNNY   74  64  71 CALM      30.06R
KENNEDY INTL   MOSUNNY   75  62  64 SE3       30.08R
NEWARK/LIBERTY PTSUNNY   74  64  71 S5        30.06S
BRNX BOT. GARD   N/A     75  63  64 CALM      30.09S
TETERBORO      MOSUNNY   73  64  73 CALM      30.06R
$$

NYZ177-179-078>081-211400-
LONG ISLAND NEW YORK

CITY           SKY/WX    TMP DP  RH WIND       PRES   REMARKS
FARMINGDALE    MOSUNNY   71  64  78 E5        30.07R
ISLIP          CLOUDY    71  62  73 E6        30.06R
SHIRLEY        CLOUDY    71  63  75 E3        30.08R
WESTHAMPTON    CLOUDY    72  62  71 E7        30.09R
MONTAUK POINT    N/A     69  61  75 N6        30.10S
$$

NYZ052-065-067-211400-
HUDSON VALLEY

CITY           SKY/WX    TMP DP  RH WIND       PRES   REMARKS
WHITE PLAINS   MOSUNNY   70  64  81 E3        30.07R
NEWBURGH       PTSUNNY   68  66  94 CALM      30.08S
MONTGOMERY     CLOUDY    68  64  87 CALM      30.06S
POUGHKEEPSIE   PTSUNNY   69  65  86 CALM      30.05S
ALBANY         CLOUDY    67  63  87 SE3       30.04S
$$

NJZ001-105-106-008-010-013-015-019>022-104-211400-
NEW JERSEY

CITY           SKY/WX    TMP DP  RH WIND       PRES   REMARKS
NEWARK/LIBERTY PTSUNNY   74  64  71 S5        30.06S
TETERBORO      MOSUNNY   73  64  73 CALM      30.06R
CALDWELL       CLOUDY    69  63  81 CALM      30.08R
MORRISTOWN     CLOUDY    70  66  88 CALM      30.08R
SOMERVILLE     PTSUNNY   70  65  84 CALM      30.05R
LINDEN         PTSUNNY   78  67  70 CALM      30.08S
SUSSEX         CLOUDY    71  64  78 CALM      30.06S
ANDOVER          N/A     70  63  78 CALM      30.07S
TRENTON        MOSUNNY   72  64  76 SW5       30.06S
MILLVILLE      SUNNY     74  67  78 SE3       30.06R
ATLANTIC CITY  SUNNY     75  66  73 CALM      30.07R
WRIGHTSTOWN    NOT AVBL
TOMS RIVER     SUNNY     75  63  64 CALM      30.07S
BELMAR         PTSUNNY   73  63  68 S3        30.07S
$$

PAZ047>061-062-071-211400-
EASTERN PENNSYLVANIA

CITY           SKY/WX    TMP DP  RH WIND       PRES   REMARKS
PHILADELPHIA   CLOUDY    74  66  76 CALM      30.06S
ALLENTOWN      MOSUNNY   73  64  73 CALM      30.07R
SCRANTON       CLOUDY    72  62  71 SW6       30.06S
$$

CTZ002-004>006-009-010-012-RIZ004-006-007-MAZ004-011-015-211400-
SOUTHERN NEW ENGLAND
 IN CT

CITY           SKY/WX    TMP DP  RH WIND       PRES   REMARKS
BRADLEY INTL   PTSUNNY   68  62  81 CALM      30.06F
HARTFORD       CLOUDY    69  61  75 CALM      30.07S
DANBURY        CLOUDY    69  64  84 SE7       30.08S
WTRBRY/OXFORD  PTSUNNY   70  63  78 S7        30.10R
BRIDGEPORT     CLOUDY    72  65  78 E7        30.07R
MERIDEN        LGT RAIN  69  62  78 SW3       30.08R
NEW HAVEN      PTSUNNY   72  64  76 SE5       30.08R
CHESTER        FAIR      70  61  73 E3        30.09S
GROTON         SUNNY     68  57  68 NE9       30.08S
WILLIMANTIC    PTSUNNY   67  61  81 CALM      30.09S

 IN RI

CITY           SKY/WX    TMP DP  RH WIND       PRES   REMARKS
PROVIDENCE     PTSUNNY   65  60  84 NE6       30.11S
BLOCK ISLAND   MOSUNNY   66  63  88 NE6       30.09S
WESTERLY       CLOUDY    67  61  81 N7        30.09F

 IN MA

CITY           SKY/WX    TMP DP  RH WIND       PRES   REMARKS
BOSTON         PTSUNNY   65  61  87 CALM      30.11R
WORCESTER      PTSUNNY   65  54  67 VRB5      30.12R
WESTFIELD      PTSUNNY   68  62  81 NE3       30.07S
PROVINCETOWN   PTSUNNY   70  64  83 MISG      30.10R
NANTUCKET      CLOUDY    68  63  84 NE9       30.07R
$$

ANZ330-335-338-340-345-350-353-355-211400-
COASTAL MARINE OBSERVATIONS


STATION/POSITION TIME  SKY/WX   TEMP    WIND        PRES    VSBY  WAVE
                                AIR SEA DIR/SP/G                  HT/PER
                 (UTC)          (F)     (DEG/KT/KT) (MB)    (MI)  (FT/S)
NY HARB ENTRANCE NOT AVBL
4S FIRE IS       NOT AVBL
23SW MTP         1300            68 69              1018.1          3/ 7
HUDSON CANYON    1300            70 73   30/ 14/ 16 1017.8          3/ 7
EXECUTION ROCKS  1300            72 74   CALM  /  2   N/A
WESTERN LI SOUND 1300            72     130/  2/  4   N/A           0
CENTRAL LI SOUND 1200            68 73  100/ 10/ 12   N/A           0
EASTERN LI SOUND 1200            68 68   60/  8/ 10   N/A
ROBBINS REEF     1300            74      CALM  /  2   N/A
$$


>>>>>>>>>>>>>>>>>>>>>>>>>>>> KEY <<<<<<<<<<<<<<<<<<<<<<<<<<<
>                                                          <
>     SKY/WX - SKY CONDITION/PRESENT WEATHER               <
>     TMP    - TEMPERATURE IN FAHRENHEIT                   <
>     DP     - DEWPOINT IN FAHRENHEIT                      <
>     RH     - RELATIVE HUMIDITY IN PERCENT                <
>     WIND   - DIRECTION AND SPEED IN MPH                  <
>     PRES   - MEAN SEA LEVEL PRESSURE IN INCHES OF HG     <
>     WCI    - WIND CHILL INDEX                            <
>     VSB    - VISIBILITY IN MILES                         <
>     HX     - HEAT INDEX                                  <
>     TC     - TEMPERATURE IN CELSIUS                      <
>     VRB    - VARIABLE WIND DIRECTION                     <
>                                                          <
>>>>>>>>>>>>>>>>>>>>>>>>>>>> KEY <<<<<<<<<<<<<<<<<<<<<<<<<<<





USA.gov is the U.S. government's official web portal to all federal, state and local government web resources and services.